Terug naar catalogus

SL-16 DEB

ActiefLEO
NORAD 22349·DEBRIS·🇷🇺 Russia

Gelanceerd Dec 25, 1992 vanaf Baikonur Cosmodrome

Loading…

Volgende Passages (komende 24 uur)

TLE

VersSource: Space-Track

Epoch: Sep 14, 2026, 14:51 UTC

1 22349U 92093AN  26257.61942160  .00000354  00000-0  32238-3 0  9997
2 22349  70.8186 121.2644 0182557  29.8901   0.6435 13.82812688695240

Volg SL-16 DEB in realtime met AllMySat

Download on the App Store